Location: Atherton
(17.2661°S, 145.4859°E)
Time: 23:16:26
(UTC+10:00)

Hubble Space Telescope - Pass Details

Date: 20 May 2025
Orbit: 488 x 491 km, 28.5° (Epoch: 15 June)

Event Time Altitude Azimuth Distance (km) Brightness Sun altitude
Rises 18:21:32 0° 238° (WSW) 2,566 4.9 -7.4°
Reaches altitude 10° 18:24:29 10° 215° (SW) 1,685 3.5 -8.1°
Maximum altitude 18:26:52 16° 176° (S) 1,373 2.6 -8.6°
Drops below altitude 10° 18:29:16 10° 138° (SE) 1,686 2.8 -9.2°
Enters shadow 18:29:28 - 136° (SE) 1,733 2.8 -9.2°
